Eau Claire, WI

1:34 AM CDT on June 28, 2017 (GMT -0500)
Chippewa Valley Regional

Weather History for KEAU - April, 2014

Change the Weather History Date:

Tuesday, April 29, 2014

  Actual Average Record
Temperature  
Mean Temperature 39 °F 52 °F  
Max Temperature 41 °F 65 °F 90 °F (1970)
Min Temperature 36 °F 40 °F 17 °F (1956)
Degree Days  
Heating Degree Days 26 13  
Month to date heating degree days 685 563  
Since 1 July heating degree days 8861 7627  
Cooling Degree Days 0 1  
Month to date cooling degree days 0 3  
Year to date cooling degree days 0 3  
Moisture  
Dew Point 36 °F    
Average Humidity 93    
Maximum Humidity 100    
Minimum Humidity 85    
Precipitation  
Precipitation 0.86 in 0.11 in 2.12 in (1942)
Month to date precipitation 5.80 2.64  
Year to date precipitation 9.73 6.07  
Snow  
Snow T in 0.00 in 4.30 in (1956)
Month to date snowfall 9.1 1.9  
Since 1 July snowfall 74.8 46.8  
Snow Depth 0.00 in    
Sea Level Pressure  
Sea Level Pressure 29.65 in    
Wind  
Wind Speed 11 mph (NNE)    
Max Wind Speed 22 mph    
Max Gust Speed 29 mph    
Visibility 9 miles    
Events Rain    
T = Trace of Precipitation, MM = Missing Value Source: NWS Daily Summary

Daily Weather History Graph

Daily Weather History Graph

Search for Another Location

Airport or City:

Trip Planner

Search our weather history database for the weather conditions in past years. The results will help you decide how hot, cold, wet, or windy it might be!

Date:

Astronomy

Apr. 29, 2014 Rise Set
Actual Time 5:58 AM CDT 8:08 PM CDT
Civil Twilight 5:26 AM CDT 8:40 PM CDT
Nautical Twilight 4:46 AM CDT 9:20 PM CDT
Astronomical Twilight 4:03 AM CDT 10:04 PM CDT
Moon 6:17 AM CDT (4/29) 8:50 PM CDT (4/29)
Length of Visible Light 15h 14m
Length of Day
14h 10m
New Moon, 0% of the Moon is Illuminated
Apr 29
New Moon
May 6
First Quarter
May 14
Full
May 21
Last Quarter
May 28
New

Hourly Weather History & Observations

Time (CDT) Temp. Windchill Dew Point Humidity Pressure Visibility Wind Dir Wind Speed Gust Speed Precip Events Conditions
12:39 AM 42.1 °F 32.3 °F 36.0 °F 79% 29.68 in 10.0 mi ENE 24.2 mph 31.1 mph 0.00 in Rain Light Rain
12:56 AM 41.0 °F 31.9 °F 36.0 °F 82% 29.69 in 10.0 mi ENE 19.6 mph - 0.01 in Rain Light Rain
1:56 AM 39.9 °F 32.1 °F 37.0 °F 89% 29.70 in 10.0 mi ENE 13.8 mph - 0.05 in Rain Light Rain
2:56 AM 39.9 °F 31.8 °F 37.9 °F 93% 29.67 in 10.0 mi ENE 15.0 mph 24.2 mph 0.01 in   Overcast
4:56 AM 39.9 °F 32.1 °F 37.9 °F 93% 29.65 in 10.0 mi NE 13.8 mph - 0.05 in Rain Light Rain
5:56 AM 39.9 °F 32.1 °F 37.9 °F 93% 29.65 in 10.0 mi NE 13.8 mph - 0.05 in Rain Light Rain
6:56 AM 39.9 °F 32.5 °F 37.9 °F 93% 29.65 in 6.0 mi NE 12.7 mph - 0.13 in Rain Rain
7:28 AM 39.0 °F 30.3 °F 37.0 °F 93% 29.63 in 6.0 mi NE 16.1 mph - 0.08 in Rain Rain
7:56 AM 37.9 °F 29.2 °F 36.0 °F 93% 29.65 in 9.0 mi NE 15.0 mph 21.9 mph 0.14 in Rain Rain
8:50 AM 37.4 °F 30.3 °F 35.6 °F 93% 29.62 in 7.0 mi NNE 10.4 mph - 0.10 in Rain Light Rain
8:56 AM 37.9 °F 30.5 °F 36.0 °F 93% 29.64 in 7.0 mi NNE 11.5 mph 17.3 mph 0.11 in Rain Rain
9:56 AM 37.0 °F 29.8 °F 35.1 °F 93% 29.63 in 10.0 mi NNE 10.4 mph - 0.08 in Rain Light Rain
10:56 AM 37.0 °F 29.3 °F 35.1 °F 93% 29.63 in 10.0 mi NNE 11.5 mph - 0.03 in Rain Light Rain
11:27 AM 37.9 °F 28.9 °F 36.0 °F 93% 29.61 in 9.0 mi NE 16.1 mph 24.2 mph 0.01 in Rain Light Rain
11:56 AM 37.9 °F 29.2 °F 36.0 °F 93% 29.62 in 9.0 mi NE 15.0 mph 23.0 mph 0.03 in Rain Light Rain
12:56 PM 39.9 °F 33.4 °F 37.0 °F 89% 29.62 in 10.0 mi NE 10.4 mph - 0.02 in Rain Light Rain
1:44 PM 39.0 °F 31.4 °F 37.0 °F 93% 29.60 in 7.0 mi NNE 12.7 mph 23.0 mph 0.01 in Rain Light Rain
1:56 PM 39.0 °F 31.0 °F 37.0 °F 93% 29.62 in 7.0 mi NNE 13.8 mph 23.0 mph 0.01 in Rain Light Rain
2:04 PM 39.9 °F 32.5 °F 37.0 °F 89% 29.60 in 8.0 mi NNE 12.7 mph - 0.01 in Rain Light Rain
2:15 PM 39.0 °F 30.6 °F 37.0 °F 93% 29.61 in 8.0 mi NNE 15.0 mph 23.0 mph 0.01 in Rain Light Rain
2:20 PM 39.9 °F 31.8 °F 37.0 °F 89% 29.60 in 7.0 mi NNE 15.0 mph 21.9 mph 0.01 in Rain Light Rain
2:28 PM 39.0 °F 30.3 °F 37.0 °F 93% 29.61 in 6.0 mi North 16.1 mph 21.9 mph 0.01 in Rain Light Rain
2:56 PM 37.9 °F 29.6 °F 36.0 °F 93% 29.64 in 7.0 mi NNE 13.8 mph - 0.03 in Rain Light Rain
3:05 PM 39.0 °F 31.8 °F 37.0 °F 93% 29.61 in 9.0 mi NNE 11.5 mph - 0.00 in Rain Light Rain
3:17 PM 37.9 °F 30.0 °F 36.0 °F 93% 29.61 in 10.0 mi NNE 12.7 mph 19.6 mph 0.00 in Rain Light Rain
3:56 PM 39.0 °F 32.8 °F 37.0 °F 93% 29.64 in 8.0 mi NNE 9.2 mph - 0.00 in   Overcast
4:14 PM 39.0 °F 31.8 °F 37.0 °F 93% 29.62 in 10.0 mi NNE 11.5 mph - N/A   Overcast
4:56 PM 39.0 °F 32.3 °F 36.0 °F 89% 29.65 in 10.0 mi NNE 10.4 mph - N/A   Overcast
5:56 PM 39.0 °F 31.8 °F 36.0 °F 89% 29.67 in 10.0 mi NNE 11.5 mph - 0.01 in Rain Light Rain
6:56 PM 39.0 °F 33.4 °F 36.0 °F 89% 29.69 in 10.0 mi NNE 8.1 mph - 0.01 in Rain Light Rain
7:56 PM 37.9 °F 32.1 °F 36.0 °F 93% 29.69 in 10.0 mi North 8.1 mph - 0.01 in Rain Light Rain
8:56 PM 37.9 °F 32.7 °F 36.0 °F 93% 29.70 in 10.0 mi North 6.9 mph - 0.00 in   Overcast
9:56 PM 37.0 °F 30.4 °F 36.0 °F 96% 29.70 in 10.0 mi North 9.2 mph - N/A   Overcast
10:56 PM 37.0 °F 31.6 °F 35.1 °F 93% 29.70 in 10.0 mi North 6.9 mph - 0.00 in Rain Light Rain
11:56 PM 36.0 °F 29.0 °F 35.1 °F 97% 29.70 in 10.0 mi North 9.2 mph - 0.03 in Rain Light Rain